Flag for Madagascar Weather past 2 weeks in Toamasina, Madagascar

Now
75 °F

Scattered showers. Partly cloudy.


Feels Like: 73 °F
Forecast: 74 / 83 °F
Wind: No wind

Location: Tamatave

Current Time: Feb 28, 2015 at 4:22:37 AM

Latest Report: Feb 28, 2015 at 4:00 AM


Visibility: N/A

Pressure: 29.77 "Hg

Humidity: 100%

Dew point: 75 °F

Location of ToamasinaLocation

Historic Weather in Toamasina — Graph

°F

Toamasina temperature yesterday

Maximum temperature yesterday: 86 °F (at 3:00 PM)
Minimum temperature yesterday: 73 °F (at 3:00 AM)
Average temperature yesterday: 79 °F

Past Weeks' High & Low Weather Summary

 TemperatureHumidityPressure
High93 °F (Feb 23, 1:00 AM)100% (Feb 16, 12:00 AM)30.01 "Hg (Feb 16, 12:00 AM)
Low73 °F (Feb 13, 3:00 AM)53% (Feb 23, 1:00 AM)29.71 "Hg (Feb 19, 4:00 PM)
Average81 °F86%29.84 "Hg
* Reported Feb 13 3:00 AM — Feb 28 3:00 AM, Toamasina, Weather by CustomWeather, © 2015

Note: Actual official high and low records may vary slightly from our data, if they occured in-between our weather recording intervals... More about our weather records

Advertising

Toamasina weather history for previous 24 hours

 ConditionsComfort  
Time TempWeatherWind HumidityBarometerVisibility
3:00 AM
Sat, Feb 28
75 °FScattered showers. Partly cloudy.No wind100%29.77 "HgN/A
2:00 AM77 °FScattered showers. Partly cloudy.No wind100%29.77 "HgN/A
1:00 AM77 °FScattered showers. Partly cloudy.No wind100%29.80 "HgN/A
12:00 AM77 °FScattered showers. Partly cloudy.No wind100%29.80 "HgN/A
11:00 PM
Fri, Feb 27
79 °FScattered showers. Partly cloudy.7 mph94%29.80 "HgN/A
10:00 PM79 °FScattered showers. Partly cloudy.7 mph94%29.80 "HgN/A
9:00 PM79 °FLight rain. Partly cloudy.7 mph94%29.80 "Hg4 mi
8:00 PM81 °FScattered showers. Partly cloudy.7 mph89%29.80 "HgN/A
7:00 PM82 °FScattered showers. Partly cloudy.7 mph84%29.77 "HgN/A
6:00 PM82 °FScattered showers. Broken clouds.7 mph84%29.74 "HgN/A
5:00 PM82 °FScattered showers. Broken clouds.7 mph84%29.71 "HgN/A
4:00 PM84 °FScattered clouds.7 mph79%29.71 "HgN/A
3:00 PM86 °FScattered clouds.9 mph75%29.71 "HgN/A
2:00 PM84 °FScattered clouds.7 mph79%29.74 "HgN/A
1:00 PM84 °FScattered clouds.7 mph79%29.74 "HgN/A
12:00 PM84 °FScattered clouds.5 mph79%29.77 "HgN/A
11:00 AM82 °FBroken clouds.7 mph79%29.77 "HgN/A
10:00 AM81 °FScattered showers. Broken clouds.7 mph84%29.80 "HgN/A
9:00 AM79 °FScattered showers. Broken clouds.7 mph89%29.80 "HgN/A
8:00 AM79 °FScattered showers. Broken clouds.7 mph89%29.80 "HgN/A
7:00 AM75 °FScattered showers. Broken clouds.7 mph100%29.77 "HgN/A
6:00 AM75 °FBroken clouds.5 mph94%29.77 "HgN/A
5:00 AM73 °FPartly cloudy.No wind94%29.74 "HgN/A
4:00 AM73 °FScattered showers. Partly cloudy.No wind94%29.74 "HgN/A
Weather by CustomWeather, © 2015

See weather overviewHow to use our weather pages